Find Starlink 30347

NORAD ID: 57699 Int'l Des: 2023-129 Owner: SPXS Country: US Constellation: starlink operational
LEOCIRCULAR

Live-Position

3D-Globus wird geladen...

Über Starlink 30347

Beschreibung wird geladen...

Nächste Überflüge

Passes for default location (London). Set your location on the main map for personalized predictions.

Höhenverlauf

Loading altitude history...

Zweizeiliger Elementsatz

1 57699U 23129B 26127.72860213 -.00001084 00000-0 -29888-4 0 9994
2 57699 43.0019 133.2470 0000577 302.1543 57.9252 15.27570942149840
Epoch: 7. Mai 2026 • Age: 11 hours

Aktueller Status

Höhe 482.2 km
Geschwindigkeit 7.63 km/s
Subsatellitenpunkt 4.80°N, 157.76°W
Startdatum 27. Aug. 2023
Alter 2.6 years
Typ internet

Technische Details

Klassifizierung Payload
Masse 730.00 kg
Trockenmasse 700.00 kg
Gesamtmasse 730.00 kg
Länge 0.30 m
Durchmesser 4.10 m
Spannweite 29.00 m
Form Box + pan
Hersteller SPXS
Bus-Typ Starlink V2M
Phasenstatus In Orbit
Besitzer/Staat SPXS/US

Most Searched